This is the latest recevied weather packets stored in our database for station/object W9QL-13. If no packets are shown the sender has not sent any weather packets the latest 10 day(s).
| Time | Temp. | Humidity | Pressure | Rain* | Wind** | Luminosity | Snow |
|---|---|---|---|---|---|---|---|
| 1777925305 | 26.11° C | 23% | 996.9 hPa | 0 mm | - | - | - |
| 1777924975 | 26.11° C | 23% | 997 hPa | 0 mm | - | - | - |
| 1777924675 | 26.11° C | 22% | 997.1 hPa | 0 mm | - | - | - |
| 1777924345 | 26.11° C | 23% | 997.2 hPa | 0 mm | - | - | - |
| 1777924045 | 26.11° C | 23% | 997.2 hPa | 0 mm | - | - | - |
| 1777923716 | 26.11° C | 23% | 997.3 hPa | 0 mm | - | - | - |
| 1777923385 | 26.11° C | 22% | 997.5 hPa | 0 mm | - | - | - |
| 1777923085 | 26.11° C | 22% | 997.5 hPa | 0 mm | - | - | - |
| 1777922785 | 26.11° C | 24% | 997.6 hPa | 0 mm | - | - | - |
| 1777922455 | 26.11° C | 24% | 997.7 hPa | 0 mm | - | - | - |
| 1777922155 | 26.11° C | 24% | 997.7 hPa | 0 mm | - | - | - |
| 1777921855 | 25.56° C | 22% | 997.8 hPa | 0 mm | - | - | - |
| 1777921555 | 25.56° C | 24% | 997.8 hPa | 0 mm | - | - | - |
| 1777921255 | 25.56° C | 24% | 997.8 hPa | 0 mm | - | - | - |
| 1777920955 | 25.56° C | 24% | 997.7 hPa | 0 mm | - | - | - |
| 1777920625 | 25.56° C | 26% | 997.7 hPa | 0 mm | - | - | - |
| 1777920325 | 25.56° C | 27% | 997.8 hPa | 0 mm | - | - | - |
| 1777920025 | 25.56° C | 24% | 997.9 hPa | 0 mm | - | - | - |
| 1777919725 | 25.56° C | 25% | 998 hPa | 0 mm | - | - | - |
| 1777919425 | 25° C | 26% | 998 hPa | 0 mm | - | - | - |
| 1777919125 | 25° C | 25% | 998.1 hPa | 0 mm | - | - | - |
| 1777918825 | 25° C | 24% | 998 hPa | 0 mm | - | - | - |
| 1777918495 | 25.56° C | 25% | 998 hPa | 0 mm | - | - | - |
| 1777918195 | 25.56° C | 24% | 998 hPa | 0 mm | - | - | - |
| 1777917865 | 25.56° C | 24% | 998.1 hPa | 0 mm | - | - | - |
* Rain latest hour (hover to see other rain measurements)
** Current wind speed in m/s (hover to see current wind gust speed)